Location: Cold Norton
(51.6667°N, 0.6667°E)
Time: 08:03:30
(UTC+00:00)

CZ-2D R/B - Pass Details

Date: 18 November 2025
Orbit: 525 x 597 km, 98.0° (Epoch: 12 December)

Event Time Altitude Azimuth Distance (km) Brightness Sun altitude
Rises 17:45:50 0° 156° (SSE) 2,797 6.8 -15.6°
Reaches altitude 10° 17:47:58 10° 153° (SSE) 1,911 5.9 -15.9°
Maximum altitude 17:52:05 65° 72° (ENE) 656 3.4 -16.5°
Drops below altitude 10° 17:56:17 10° 351° (N) 1,950 6.1 -17.2°
Sets 17:58:29 0° 348° (NNW) 2,860 7.0 -17.5°
